GFSNW_con_lsi_162.txt.gz
Lid_Strength_Index
-0 -1 -1 -1 -1 -1 0 4 9 2 -0 9 10 13 12 8 10 8 9 8 9 11 11 12 12 12 10 7 7 11 9 11 14 13 10 8 9 11 11 15 16 14 14 16
-0 -1 -1 -1 -1 -1 2 7 6 2 2 12 12 11 10 9 10 10 10 10 8 8 11 13 11 10 7 7 8 10 9 13 17 15 12 11 12 11 10 11 11 15 17 15
-0 -1 -1 -1 -1 -0 2 6 10 7 6 7 11 11 11 12 9 10 10 10 8 9 11 9 12 11 8 7 7 7 7 11 14 16 13 11 13 12 11 12 16 15 14 12
-1 -1 -1 -1 -1 -0 3 7 10 8 11 10 9 10 11 12 11 9 9 10 10 10 13 11 12 10 9 8 7 8 9 14 12 11 10 10 10 11 12 13 12 15 12 12
-1 -1 -1 -1 -1 1 5 9 9 7 9 8 9 9 11 12 11 10 11 11 9 9 11 10 12 10 10 10 8 9 9 14 12 14 11 11 12 11 11 12 11 11 11 11
-0 -1 -1 -1 -0 1 5 5 6 6 8 9 10 10 11 11 10 9 9 9 9 10 9 7 7 6 7 8 9 10 11 12 14 16 12 12 16 13 11 10 10 10 13 10
-1 -1 -1 -1 -0 1 2 4 5 8 10 9 10 9 8 9 10 11 9 9 9 7 5 5 6 7 7 7 8 8 11 12 13 16 14 20 12 8 9 10 9 8 9 8
-1 -1 -1 -1 -0 -0 2 4 7 8 10 9 9 8 8 8 7 8 9 7 6 4 6 10 13 13 12 11 9 9 8 11 14 17 17 13 11 10 10 11 11 8 8 7
-1 -1 -1 -1 -1 -0 3 4 4 7 9 10 9 9 8 10 10 10 9 7 6 5 9 11 15 16 14 15 13 9 9 10 14 15 18 19 11 8 9 8 14 7 7 7
-1 -1 -1 -1 -1 -0 3 4 4 5 9 8 9 9 9 7 9 10 9 9 9 7 11 13 14 14 12 15 15 14 14 13 15 15 17 15 10 9 9 15 13 8 7 7
-1 -1 -1 -1 -1 -0 2 3 4 4 8 8 7 8 9 9 8 10 10 9 9 10 12 13 13 13 13 13 11 12 14 15 15 14 16 17 7 11 11 8 10 12 11 9
-1 -1 -1 -1 -1 -1 2 3 4 4 7 8 6 6 6 7 9 9 9 10 10 8 10 11 11 13 13 12 15 10 13 10 12 11 11 9 9 9 12 13 12 12 13 13
-1 -0 -1 -1 -1 -0 2 3 5 5 7 7 7 8 6 5 6 6 8 8 7 7 7 9 10 12 11 14 13 10 10 8 10 10 8 9 11 13 14 14 14 14 15 15
-1 -1 -1 -1 -1 0 2 3 5 5 8 9 9 6 7 6 7 7 7 7 6 7 7 8 9 11 9 10 10 10 8 8 10 10 9 12 11 12 13 15 15 16 16 16
0 -0 -0 -1 -1 1 4 5 5 5 6 9 9 9 8 8 8 8 8 8 8 8 9 9 11 9 10 11 11 10 8 9 10 11 8 8 8 12 14 16 16 16 18 19
1 1 -0 -1 0 2 3 8 5 5 5 8 10 10 11 11 11 9 9 9 9 9 9 9 9 10 9 11 12 8 10 13 13 8 14 15 15 15 15 16 17 18 18 18
1 2 2 2 3 5 7 8 7 4 5 8 10 12 12 13 13 10 9 9 9 10 10 11 12 12 11 11 12 11 14 15 16 15 15 16 16 16 17 18 18 19 20 20
3 4 3 3 4 5 9 9 8 6 8 9 12 12 14 15 13 12 10 10 10 12 12 13 13 13 13 14 12 16 17 18 18 18 18 18 18 19 20 20 21 22 23 23
4 5 7 10 11 11 10 8 10 12 10 11 15 14 14 16 16 14 12 11 13 12 14 15 16 14 16 13 16 19 20 19 20 22 21 20 21 22 22 22 22 22 23 23
6 10 13 16 14 9 8 13 13 15 19 18 16 23 16 18 17 16 15 14 14 15 17 18 18 16 17 20 21 20 19 22 22 23 24 24 24 23 24 23 22 22 24 24
15 18 17 15 13 13 18 18 18 20 18 21 22 21 18 18 17 16 17 17 19 17 19 19 17 19 17 23 24 24 21 21 22 25 24 21 21 23 24 25 24 24 24 25
16 16 18 18 20 20 19 23 25 23 18 24 20 20 20 20 19 18 20 18 20 19 25 20 19 16 22 25 26 26 25 25 27 29 25 26 23 23 24 25 26 26 27 28
18 19 20 18 22 23 22 24 22 23 27 25 25 21 22 21 19 21 20 19 20 25 21 19 17 19 23 26 28 30 32 31 30 30 30 28 28 28 27 28 29 28 29 29
20 21 22 20 23 23 22 21 20 24 26 28 24 25 22 25 22 25 21 25 25 22 22 19 16 19 22 25 27 28 28 29 28 28 28 28 28 28 29 27 28 29 29 32
21 22 22 25 25 32 35 41 35 32 29 26 25 25 22 25 25 27 25 25 24 22 19 17 18 22 23 25 26 26 27 28 28 29 29 29 30 29 30 31 29 28 30 31
24 26 24 35 28 27 34 36 31 32 27 28 26 27 26 25 25 25 23 23 23 19 20 19 24 26 26 26 26 26 26 27 28 30 29 29 31 29 27 32 31 31 29 30
24 22 35 29 28 24 28 30 28 28 25 23 25 24 21 29 28 27 25 22 18 20 21 24 26 24 25 27 28 28 29 29 29 30 30 29 31 33 31 29 29 31 30 30

GFSNW_con_lsi_165.txt.gz
Lid_Strength_Index
-0 -1 -1 -1 -1 -1 -0 4 9 1 1 9 9 11 10 10 9 10 11 9 9 11 11 12 12 12 9 6 7 11 8 10 14 13 9 8 9 11 11 16 17 14 15 15
-0 -1 -1 -1 -1 -1 2 6 6 1 2 11 11 9 11 10 11 11 11 10 9 8 10 13 11 10 7 6 8 10 9 13 17 16 12 10 12 11 10 11 11 15 18 15
-1 -1 -1 -1 -1 -1 1 5 9 6 5 6 9 10 10 11 9 10 10 10 9 9 11 9 12 10 8 7 7 7 7 11 13 16 13 11 13 12 11 12 16 15 14 13
-1 -1 -1 -1 -1 -1 1 5 8 8 11 9 8 8 10 12 12 9 9 11 11 11 13 12 11 9 9 8 7 8 9 14 12 11 10 10 11 11 12 13 12 15 12 12
-1 -1 -1 -1 -1 -0 3 7 8 8 9 7 9 9 11 11 11 9 11 12 11 12 12 11 12 10 10 10 8 9 9 14 12 14 11 11 12 11 10 11 11 11 11 11
-1 -1 -1 -1 0 -0 4 4 4 5 7 9 9 10 9 10 10 9 8 9 10 11 10 7 6 6 6 7 9 10 11 13 14 16 12 12 16 12 11 10 9 10 13 10
-1 -1 -1 -0 -0 -0 1 2 3 7 9 8 9 8 8 9 9 10 9 8 9 7 4 5 6 7 7 7 8 7 11 12 13 16 14 20 11 7 8 10 9 8 8 8
-1 -1 -1 -1 -0 -0 1 3 5 7 9 8 8 8 8 7 7 9 9 8 6 5 7 11 13 13 12 11 9 9 9 12 15 17 17 13 11 9 9 10 11 7 8 7
-1 -1 -1 -1 -0 -0 1 2 3 6 9 9 8 9 7 9 9 9 8 7 6 5 9 12 15 17 14 15 13 9 9 9 13 15 18 19 11 8 7 7 14 7 7 7
-1 -1 -1 -1 -1 -1 1 2 3 4 8 7 8 9 9 6 8 10 9 9 9 6 11 13 15 15 12 15 15 15 14 13 15 15 17 14 9 8 7 15 12 7 6 6
-1 -1 -1 -1 -1 -1 1 1 2 3 6 6 8 8 8 7 7 10 9 9 10 10 12 13 13 14 12 12 11 13 14 15 15 14 16 18 7 9 11 8 7 7 8 8
-1 -1 -1 -1 -1 -1 0 2 2 2 6 7 5 6 6 7 8 9 8 9 9 8 11 11 11 12 11 12 14 9 13 11 12 12 12 8 6 7 6 7 7 9 10 9
-1 -1 -1 -1 -1 -1 1 1 2 2 7 6 6 7 6 5 6 6 9 8 8 7 7 9 10 12 10 13 12 10 9 7 10 10 8 7 7 7 9 9 9 10 11 11
-0 -1 -1 -1 -1 0 1 1 2 2 6 8 7 5 7 6 6 6 6 7 6 6 6 8 10 11 8 10 10 10 8 8 10 10 8 7 7 7 7 10 11 13 13 12
1 -0 -0 -1 -1 1 1 3 4 3 5 9 7 8 8 7 7 7 7 7 8 8 8 9 10 8 8 9 10 10 7 9 10 11 7 7 7 9 8 10 12 12 14 15
1 1 0 -0 1 1 1 7 4 3 4 8 9 7 10 9 9 8 8 8 8 8 8 8 8 9 8 11 12 8 7 8 7 7 9 10 12 13 12 11 12 13 14 14
2 2 1 2 3 4 7 8 6 4 4 8 9 9 11 12 10 8 8 8 8 9 9 9 9 9 9 10 12 9 8 7 11 12 13 13 13 12 13 14 15 15 16 16
4 4 4 3 3 5 8 8 8 5 7 8 10 10 11 13 10 10 8 9 9 9 9 10 12 11 11 13 10 9 8 13 14 15 15 15 14 15 16 16 17 19 19 19
4 5 8 8 8 9 9 7 9 10 9 9 11 11 11 13 12 11 10 10 12 10 12 12 13 13 15 12 11 11 14 16 15 19 19 18 18 18 19 19 19 20 21 21
6 7 9 11 10 9 9 10 10 11 12 12 11 16 13 15 13 12 13 11 12 14 14 15 16 15 11 11 16 17 17 19 20 20 21 21 20 20 20 20 19 18 20 21
9 10 10 12 12 11 13 13 14 15 15 15 16 16 13 15 14 12 15 13 14 16 16 17 14 15 12 18 19 20 18 19 19 20 21 18 18 19 20 21 21 21 21 22
13 13 14 13 13 14 15 16 20 19 15 19 17 17 16 17 16 15 15 15 16 17 20 18 17 13 17 20 21 22 21 21 22 25 24 23 21 20 21 22 23 24 25 26
13 13 15 14 17 18 18 19 17 19 20 21 21 19 18 18 17 17 17 18 17 20 19 17 13 15 19 21 24 27 28 27 26 27 26 26 26 26 26 26 26 26 27 27
14 16 19 17 19 19 16 14 13 21 20 21 19 21 18 20 19 19 18 20 22 20 21 17 11 16 20 23 24 26 27 26 26 26 26 27 27 27 27 26 27 26 27 29
16 17 19 19 18 23 27 31 27 26 22 21 21 21 19 21 21 22 22 23 22 19 17 12 13 19 22 24 24 25 26 27 26 26 26 27 27 27 28 28 27 27 29 29
19 21 19 25 23 20 27 28 24 26 23 23 21 22 22 20 20 23 22 19 20 16 15 14 18 22 23 24 24 24 23 24 25 26 26 26 27 27 25 28 28 28 27 29
19 19 26 22 21 19 22 24 23 24 22 19 20 22 19 25 23 23 19 19 13 13 15 18 20 20 21 23 23 24 25 25 25 26 26 26 26 29 28 27 28 28 27 29

GFSNW_con_lsi_168.txt.gz
Lid_Strength_Index
-0 -1 -1 -1 -1 -1 0 4 9 2 1 8 9 11 10 9 9 9 11 11 11 12 11 12 12 12 10 7 7 11 9 12 16 14 10 9 10 12 12 16 18 15 16 17
-0 -1 -1 -1 -1 -1 3 8 7 2 2 12 11 9 10 9 10 11 11 12 11 10 11 14 11 11 7 7 8 10 9 13 17 16 13 11 12 11 11 11 13 17 18 17
-1 -1 -1 -1 -1 -1 2 6 10 7 5 6 10 11 11 12 7 9 9 10 10 11 12 10 12 11 8 7 7 7 8 12 14 16 14 12 14 12 11 12 16 16 16 15
-1 -1 -1 -1 -1 -1 2 5 9 8 11 10 9 9 10 11 12 8 8 10 11 12 14 13 12 10 9 8 7 8 9 15 12 12 11 11 12 12 12 14 13 15 13 13
-1 -1 -1 -1 -1 -1 4 7 9 8 10 8 9 10 12 11 11 10 11 12 11 10 14 13 15 11 10 11 9 9 9 14 13 14 11 12 13 12 11 12 12 12 12 12
-1 -1 -1 -1 -1 -0 5 4 5 6 8 10 11 10 11 10 9 8 8 9 11 11 10 9 9 8 8 8 10 11 11 13 14 17 13 13 16 13 12 12 10 11 14 10
-1 -1 -1 -1 -1 -0 3 3 4 8 11 9 10 9 8 9 9 11 9 9 10 8 5 6 7 8 8 8 8 8 12 13 13 16 15 20 13 9 9 10 10 9 9 8
-1 -1 -1 -1 -1 -1 1 3 4 7 11 9 9 8 8 8 7 9 9 8 8 6 7 11 12 13 12 12 10 9 9 12 15 17 17 14 12 11 11 11 11 8 9 8
-1 -1 -1 -0 -1 -1 1 3 2 6 9 10 9 9 9 10 10 9 9 7 6 7 10 13 15 17 15 15 13 10 10 10 14 16 18 20 12 9 8 9 14 9 8 8
-1 -1 -1 -0 -1 -1 1 2 2 5 8 7 9 9 9 8 9 11 9 9 9 7 12 15 15 15 13 16 16 15 14 14 16 16 17 16 10 10 8 15 13 8 8 8
-1 -1 -1 -1 -1 -0 1 3 3 4 7 6 6 8 9 8 9 11 9 9 9 9 12 14 14 14 13 14 13 14 14 15 16 15 17 18 9 10 12 10 10 9 10 9
-1 -1 -1 -1 -1 -1 -1 3 2 2 6 6 5 6 7 7 8 8 8 10 9 8 10 11 11 13 13 15 18 11 15 12 13 13 13 9 9 9 8 9 9 10 11 11
0 -0 -1 -1 -1 -1 -0 2 3 4 8 7 7 7 6 5 6 6 9 9 8 7 7 9 10 13 12 15 15 13 11 9 12 12 10 10 10 10 10 11 10 11 11 11
1 0 -1 -1 -1 -1 0 3 4 4 7 11 8 5 7 6 6 6 6 7 6 7 8 10 11 13 10 13 13 13 11 11 13 13 10 11 9 10 9 10 11 12 13 13
2 1 0 0 -1 0 2 4 4 3 6 10 8 8 8 7 7 7 6 7 8 9 10 10 11 11 12 13 14 14 11 11 12 12 10 10 9 10 11 11 12 13 14 14
2 2 1 0 1 1 3 8 5 4 4 9 11 9 10 12 11 11 8 8 8 8 10 11 10 9 9 15 17 10 11 11 10 9 10 11 13 14 14 14 15 15 15 15
4 3 3 2 3 4 7 8 7 5 5 8 10 10 11 12 13 9 9 8 9 9 9 10 9 10 9 13 13 10 11 11 11 14 13 14 15 14 15 15 16 17 18 18
4 5 5 5 4 5 8 8 8 5 7 9 11 12 15 14 11 12 9 10 10 10 12 12 12 11 11 14 15 13 11 10 15 17 17 17 18 19 19 19 20 21 21 20
4 5 5 9 10 11 10 7 9 9 9 10 11 12 16 15 15 14 11 10 13 12 14 13 16 16 15 15 13 15 15 15 18 23 23 23 22 21 22 22 22 22 21 20
6 9 13 15 12 9 9 12 15 12 11 13 13 18 16 16 15 13 16 12 14 15 18 17 19 19 14 13 12 19 20 20 21 24 25 26 24 22 21 21 19 19 20 20
12 14 16 14 12 14 17 19 20 21 22 18 20 21 18 18 19 17 14 16 17 21 21 22 21 18 15 19 23 24 23 23 25 24 24 22 21 21 20 20 20 19 20 21
15 15 15 16 17 19 21 23 25 25 22 25 23 23 21 22 19 21 22 21 21 23 24 24 24 17 19 23 25 27 26 26 28 29 28 28 25 24 21 20 21 22 23 24
16 17 19 20 22 24 25 27 25 26 25 26 26 26 22 23 21 23 23 26 24 25 28 25 20 18 24 28 30 32 33 29 27 28 30 30 30 30 29 28 30 28 29 32
18 20 23 21 23 23 21 21 21 26 24 25 23 27 24 24 24 23 26 25 27 29 29 23 18 21 25 28 29 31 32 32 30 30 30 28 27 30 31 28 27 27 29 32
20 20 22 20 18 22 27 30 29 27 24 23 25 26 21 25 24 25 27 28 29 25 22 20 21 25 29 29 30 30 29 30 31 32 32 32 32 32 33 33 32 30 30 31
22 22 21 23 22 21 26 27 24 26 23 24 23 27 27 26 26 28 26 25 24 19 17 20 26 29 28 29 29 27 27 28 30 31 32 32 32 32 33 35 34 34 31 31
22 22 23 21 21 20 23 22 23 23 21 21 21 25 22 26 29 28 23 23 17 15 18 23 24 24 25 26 27 27 26 26 26 29 29 31 32 33 34 32 34 35 35 34

GFSNW_con_lsi_171.txt.gz
Lid_Strength_Index
-1 -1 -1 -1 -1 -1 2 7 11 2 1 10 12 13 11 9 9 9 11 11 12 12 11 12 13 13 11 7 8 11 9 12 16 14 11 10 10 12 12 16 18 16 17 18
-1 -1 -1 -1 -1 0 5 9 8 2 3 15 18 12 12 10 11 10 11 12 11 11 12 14 11 11 8 7 8 10 9 13 17 16 13 11 12 11 11 12 13 17 19 18
-1 -1 -1 -1 -1 -1 5 9 12 8 6 8 14 18 15 14 9 10 10 11 11 12 13 12 12 11 9 7 8 7 7 12 14 16 15 13 15 13 12 12 17 16 15 15
-1 -1 -1 -1 -1 -1 5 9 12 12 11 11 13 11 11 12 15 9 9 12 12 11 14 13 12 11 9 8 7 8 9 14 13 12 12 12 12 13 13 14 13 16 13 14
-1 -1 -1 -1 -1 1 6 12 13 12 17 11 10 12 16 12 13 11 11 12 11 11 14 12 14 12 12 11 9 10 9 14 13 14 12 12 14 12 12 12 12 12 12 12
-1 -1 -2 -2 -1 2 8 7 7 10 12 13 15 14 14 12 10 10 9 10 11 11 11 10 8 9 10 10 12 11 11 13 14 17 13 13 16 13 12 12 11 11 14 11
-1 -1 -1 -2 -1 1 5 6 7 12 16 13 13 10 10 11 10 11 10 9 10 8 6 7 7 8 10 10 11 8 12 12 13 16 15 20 13 10 9 11 10 9 9 9
-1 -1 -1 -1 -1 -0 5 5 7 13 18 13 11 10 10 9 8 9 9 9 8 6 8 11 15 17 14 13 11 10 9 12 15 17 17 15 13 12 12 12 12 8 9 8
-1 -1 -1 -1 -1 -1 4 5 3 6 10 14 9 10 10 11 13 10 9 7 6 6 10 12 17 21 16 15 15 10 9 10 13 15 18 20 13 10 9 10 15 9 8 8
-1 -1 -1 -1 -1 -1 2 4 4 5 9 10 8 9 10 8 9 11 12 11 9 7 14 20 16 18 14 16 16 15 14 14 16 16 17 17 12 11 9 15 13 8 9 8
-1 -1 -1 -1 -1 -1 3 5 5 6 8 8 6 7 9 8 9 12 9 9 9 11 12 19 16 15 14 15 13 14 15 15 16 15 17 18 10 11 12 10 10 10 11 9
0 -0 -1 -1 -1 -1 0 6 3 4 7 10 5 5 5 6 7 9 8 11 9 9 15 16 14 14 13 15 16 11 15 12 14 13 13 10 10 10 9 10 9 10 10 10
1 1 0 -1 -1 -1 1 5 5 4 7 9 7 9 6 4 5 5 9 8 7 8 7 9 10 14 12 16 15 13 11 10 12 12 11 11 11 11 10 10 9 9 10 10
2 1 1 -0 -1 -1 1 5 6 6 7 11 12 5 7 6 6 6 5 7 7 7 8 9 10 12 10 12 12 13 12 11 12 13 11 11 10 10 9 10 11 11 12 12
3 2 1 1 0 1 5 5 4 4 9 16 10 9 8 7 7 7 6 7 7 9 10 10 10 11 11 12 13 14 13 12 13 13 11 10 9 10 10 10 12 12 13 14
3 3 2 1 1 3 4 8 6 5 5 9 14 12 10 12 13 9 8 8 8 8 9 13 13 10 11 15 17 11 12 12 10 9 9 10 10 14 15 14 16 16 15 15
5 5 4 3 3 5 8 10 8 6 6 10 12 11 12 13 14 10 10 8 9 9 10 11 15 13 10 12 15 10 12 11 11 12 12 12 15 11 14 15 17 18 19 19
4 5 6 6 5 6 9 9 8 6 8 9 13 15 14 15 12 12 10 11 11 11 11 12 15 15 12 14 12 13 11 13 13 14 16 15 17 18 19 20 20 22 22 22
6 5 6 11 14 14 11 8 9 10 9 12 15 14 17 18 16 13 12 11 14 14 18 17 15 20 16 14 13 11 13 14 15 24 24 23 21 21 23 23 24 22 22 22
7 11 17 20 18 10 10 16 20 13 12 13 16 18 15 17 16 16 14 13 15 16 17 17 20 21 17 15 13 14 18 19 22 21 20 26 24 22 22 22 24 23 24 23
16 19 22 17 12 17 23 23 23 26 25 24 20 20 20 20 20 20 16 20 22 25 22 22 25 23 17 18 24 27 25 24 27 27 28 28 25 25 24 25 21 20 20 22
18 18 17 19 23 25 24 29 29 29 25 27 26 25 21 24 21 23 24 24 24 25 26 25 26 20 19 25 26 28 30 28 30 31 27 28 26 26 25 23 22 22 22 22
21 21 22 21 25 26 27 27 27 29 30 31 30 27 25 24 23 26 26 27 25 28 30 26 22 21 23 26 32 33 36 33 33 32 32 31 27 28 24 24 28 25 25 26
24 24 23 21 23 25 24 24 24 25 27 29 28 31 27 26 25 25 26 27 29 31 33 25 20 21 24 29 31 33 31 31 31 31 33 32 31 31 32 31 30 29 28 30
23 23 23 21 20 26 29 33 29 28 27 24 26 27 23 28 26 26 27 29 30 25 22 19 20 24 28 30 30 29 32 31 30 33 33 32 32 32 32 34 34 32 32 34
24 26 24 25 24 23 27 29 27 27 23 24 23 25 26 26 26 29 26 26 25 20 18 19 25 27 28 27 30 28 28 29 30 30 30 29 30 31 31 34 34 33 30 31
26 24 27 24 26 23 25 24 23 22 22 22 21 23 22 26 30 29 25 23 18 17 19 23 25 24 24 26 29 30 28 28 27 28 28 29 30 31 32 29 32 34 33 32